Location: Unspecified
(0.0000°N, 0.0000°E)
Time: 14:29:26
(UTC+02:00)

USA 116 - Visible Passes

Search period start: 23 June 2018 00:00
Search period end: 03 July 2018 00:00
Orbit: 405 x 834 km, 97.9° (Epoch: 18 November)

Date Brightness Start Highest point End Pass type
(mag) Time Alt. Az. Time Alt. Az. Time Alt. Az.
23 Jun 7.7 06:24:14 10° E 06:24:58 10° ENE 06:25:43 10° ENE visible
24 Jun 7.2 06:35:12 10° ESE 06:38:01 16° ENE 06:41:00 10° NE visible
25 Jun 6.7 06:47:24 10° SE 06:51:05 24° ENE 06:55:03 10° NNE visible
26 Jun 6.0 06:59:57 10° SE 07:04:09 36° ENE 07:08:45 10° N visible
27 Jun 5.1 07:12:44 10° SSE 07:17:16 54° ENE 07:22:13 10° N visible
28 Jun 4.4 07:25:42 10° SSE 07:30:22 82° ENE 07:35:31 10° N visible
30 Jun 7.8 06:20:30 10° E 06:21:20 10° ENE 06:22:12 10° ENE visible
01 Jul 7.3 06:31:25 10° ESE 06:34:24 16° ENE 06:37:31 10° NE visible
02 Jul 6.9 06:43:34 10° SE 06:47:29 23° ENE 06:51:35 10° NNE visible
